20040108,000011,190633,31.155333,-120.935333,NaN,15.724,33.067,41.469,  NaN,0.0, NaN, NaN, NaN, NaN, NaN,359.267,15.90,1018.86,71.90,NaN,348.0,NaN,4.3,NaN,105.2,NaN,1.2,NaN,NaN, NaN,NaN,242.0,NaN,NaN,NaN,2,10.3,000009,   NaN,242.1,     NaN,      NaN,NaN,5.1,NaN,15.727, NaN,NaN,NaN, NaN, NaN

20040108,000041,190663,31.154667,-120.936833,NaN,15.749,33.069,41.495,  NaN,0.0, NaN, NaN, NaN, NaN, NaN,359.655,15.90,1018.76,72.70,NaN,351.0,NaN,5.0,NaN,131.8,NaN,0.7,NaN,NaN, NaN,NaN,242.0,NaN,NaN,NaN,2,10.3,000039,   NaN,243.2,     NaN,      NaN,NaN,4.9,NaN,15.753, NaN,NaN,NaN, NaN, NaN

20040108,000111,190693,31.154000,-120.938333,NaN,15.713,33.075,41.468,  NaN,0.0, NaN, NaN, NaN, NaN, NaN,358.458,15.90,1018.77,72.20,NaN,347.0,NaN,4.6,NaN,90.9,NaN,1.3,NaN,NaN, NaN,NaN,242.0,NaN,NaN,NaN,2,10.5,000069,   NaN,242.7,     NaN,      NaN,NaN,5.2,NaN,15.717, NaN,NaN,NaN, NaN, NaN

20040108,000141,190723,31.153333,-120.939833,NaN,15.698,33.071,41.449,  NaN,0.0, NaN, NaN, NaN, NaN, NaN,358.424,15.90,1018.81,72.40,NaN,351.0,NaN,5.4,NaN,134.3,NaN,1.3,NaN,NaN, NaN,NaN,241.0,NaN,NaN,NaN,2,10.8,000099,   NaN,242.6,     NaN,      NaN,NaN,5.3,NaN,15.701, NaN,NaN,NaN, NaN, NaN

20040108,000211,190753,31.152667,-120.941333,NaN,15.699,33.070,41.449,  NaN,0.0, NaN, NaN, NaN, NaN, NaN,358.533,15.90,1018.74,71.10,NaN,350.0,NaN,5.2,NaN,125.3,NaN,0.6,NaN,NaN, NaN,NaN,242.0,NaN,NaN,NaN,2,10.8,000129,   NaN,242.6,     NaN,      NaN,NaN,5.3,NaN,15.703, NaN,NaN,NaN, NaN, NaN

20040108,000241,190783,31.151833,-120.943000,NaN,15.702,33.069,41.451,  NaN,0.0, NaN, NaN, NaN, NaN, NaN,358.613,15.80,1018.73,69.90,NaN,347.0,NaN,4.9,NaN,128.1,NaN,1.0,NaN,NaN, NaN,NaN,243.0,NaN,NaN,NaN,2,10.8,000159,   NaN,244.0,     NaN,      NaN,NaN,5.4,NaN,15.706, NaN,NaN,NaN, NaN, NaN

20040108,000311,190813,31.151167,-120.944500,NaN,15.714,33.069,41.462,  NaN,0.0, NaN, NaN, NaN, NaN, NaN,358.890,15.90,1018.67,70.40,NaN,350.0,NaN,3.9,NaN,97.9,NaN,1.3,NaN,NaN, NaN,NaN,241.0,NaN,NaN,NaN,2,10.8,000189,   NaN,242.3,     NaN,      NaN,NaN,5.4,NaN,15.717, NaN,NaN,NaN, NaN, NaN

20040108,000341,190843,31.150500,-120.946000,NaN,15.701,33.069,41.451,  NaN,0.0, NaN, NaN, NaN, NaN, NaN,358.592,15.90,1018.65,70.90,NaN,348.0,NaN,4.9,NaN,118.2,NaN,1.5,NaN,NaN, NaN,NaN,242.0,NaN,NaN,NaN,2,10.8,000219,   NaN,243.2,     NaN,      NaN,NaN,5.5,NaN,15.705, NaN,NaN,NaN, NaN, NaN

20040108,000411,190873,31.149833,-120.947667,NaN,15.706,33.066,41.451,  NaN,0.0, NaN, NaN, NaN, NaN, NaN,358.941,15.90,1018.66,71.40,NaN,346.0,NaN,5.6,NaN,138.8,NaN,1.3,NaN,NaN, NaN,NaN,242.0,NaN,NaN,NaN,2,10.8,000249,   NaN,242.3,     NaN,      NaN,NaN,5.4,NaN,15.710, NaN,NaN,NaN, NaN, NaN

20040108,000441,190903,31.149167,-120.949167,NaN,15.726,33.067,41.471,  NaN,0.0, NaN, NaN, NaN, NaN, NaN,359.303,15.90,1018.86,70.90,NaN,348.0,NaN,4.6,NaN,104.7,NaN,1.1,NaN,NaN, NaN,NaN,241.0,NaN,NaN,NaN,2,10.8,000279,   NaN,242.7,     NaN,      NaN,NaN,5.4,NaN,15.730, NaN,NaN,NaN, NaN, NaN

20040108,000511,190933,31.148500,-120.950667,NaN,15.731,33.067,41.476,  NaN,0.0, NaN, NaN, NaN, NaN, NaN,359.375,15.90,1018.70,70.60,NaN,348.0,NaN,4.7,NaN,104.9,NaN,1.2,NaN,NaN, NaN,NaN,242.0,NaN,NaN,NaN,2,10.7,000309,   NaN,242.6,     NaN,      NaN,NaN,5.4,NaN,15.735, NaN,NaN,NaN, NaN, NaN

20040108,000541,190963,31.147667,-120.952167,NaN,15.736,33.068,41.481,  NaN,0.0, NaN, NaN, NaN, NaN, NaN,359.429,15.90,1018.77,70.90,NaN,345.0,NaN,4.6,NaN,114.1,NaN,1.4,NaN,NaN, NaN,NaN,241.0,NaN,NaN,NaN,2,10.7,000339,   NaN,242.2,     NaN,      NaN,NaN,5.4,NaN,15.739, NaN,NaN,NaN, NaN, NaN

20040108,000611,190993,31.147000,-120.953667,NaN,15.732,33.068,41.478,  NaN,0.0, NaN, NaN, NaN, NaN, NaN,359.350,15.90,1018.86,71.80,NaN,352.0,NaN,4.7,NaN,107.1,NaN,1.1,NaN,NaN, NaN,NaN,242.0,NaN,NaN,NaN,2,10.7,000369,   NaN,243.2,     NaN,      NaN,NaN,5.3,NaN,15.736, NaN,NaN,NaN, NaN, NaN

20040108,000641,191023,31.146333,-120.955167,NaN,15.759,33.065,41.500,  NaN,0.0, NaN, NaN, NaN, NaN, NaN,360.121,15.90,1018.80,71.80,NaN,352.0,NaN,4.3,NaN,93.6,NaN,0.9,NaN,NaN, NaN,NaN,241.0,NaN,NaN,NaN,2,10.6,000399,   NaN,242.3,     NaN,      NaN,NaN,5.3,NaN,15.763, NaN,NaN,NaN, NaN, NaN

20040108,000711,191053,31.145667,-120.956667,NaN,15.794,33.065,41.533,  NaN,0.0, NaN, NaN, NaN, NaN, NaN,360.909,15.80,1018.82,72.00,NaN,351.0,NaN,4.2,NaN,90.7,NaN,1.6,NaN,NaN, NaN,NaN,241.0,NaN,NaN,NaN,2,10.7,000429,   NaN,241.4,     NaN,      NaN,NaN,5.4,NaN,15.798, NaN,NaN,NaN, NaN, NaN

20040108,000741,191083,31.144833,-120.958167,NaN,15.814,33.067,41.553,  NaN,0.0, NaN, NaN, NaN, NaN, NaN,361.183,15.80,1018.84,71.80,NaN,347.0,NaN,4.4,NaN,93.3,NaN,1.4,NaN,NaN, NaN,NaN,239.0,NaN,NaN,NaN,2,10.6,000459,   NaN,241.2,     NaN,      NaN,NaN,5.4,NaN,15.817, NaN,NaN,NaN, NaN, NaN

20040108,000811,191113,31.144167,-120.959667,NaN,15.829,33.069,41.571,  NaN,0.0, NaN, NaN, NaN, NaN, NaN,361.311,15.80,1018.82,72.30,NaN,347.0,NaN,4.9,NaN,104.1,NaN,1.6,NaN,NaN, NaN,NaN,240.0,NaN,NaN,NaN,2,10.6,000489,   NaN,241.4,     NaN,      NaN,NaN,5.3,NaN,15.833, NaN,NaN,NaN, NaN, NaN

20040108,000841,191143,31.143500,-120.961167,NaN,15.850,33.067,41.588,  NaN,0.0, NaN, NaN, NaN, NaN, NaN,361.899,15.80,1018.80,72.30,NaN,348.0,NaN,5.5,NaN,137.7,NaN,1.0,NaN,NaN, NaN,NaN,240.0,NaN,NaN,NaN,2,10.6,000519,   NaN,241.7,     NaN,      NaN,NaN,5.3,NaN,15.853, NaN,NaN,NaN, NaN, NaN

20040108,000911,191173,31.142667,-120.962667,NaN,15.864,33.069,41.604,  NaN,0.0, NaN, NaN, NaN, NaN, NaN,362.096,15.80,1018.92,72.00,NaN,344.0,NaN,4.9,NaN,127.6,NaN,1.4,NaN,NaN, NaN,NaN,240.0,NaN,NaN,NaN,2,10.7,000549,   NaN,241.5,     NaN,      NaN,NaN,5.3,NaN,15.868, NaN,NaN,NaN, NaN, NaN

20040108,000941,191203,31.142000,-120.964167,NaN,15.850,33.071,41.593,  NaN,0.0, NaN, NaN, NaN, NaN, NaN,361.668,15.80,1018.82,72.40,NaN,345.0,NaN,5.2,NaN,139.7,NaN,1.4,NaN,NaN, NaN,NaN,240.0,NaN,NaN,NaN,2,10.6,000579,   NaN,241.3,     NaN,      NaN,NaN,5.4,NaN,15.854, NaN,NaN,NaN, NaN, NaN

20040108,001011,191233,31.141167,-120.965667,NaN,15.832,33.072,41.576,  NaN,0.0, NaN, NaN, NaN, NaN, NaN,361.210,15.80,1018.75,72.20,NaN,344.0,NaN,5.3,NaN,139.4,NaN,1.6,NaN,NaN, NaN,NaN,239.0,NaN,NaN,NaN,2,10.7,000609,   NaN,241.5,     NaN,      NaN,NaN,5.4,NaN,15.835, NaN,NaN,NaN, NaN, NaN

20040108,001041,191263,31.140500,-120.967167,NaN,15.826,33.070,41.569,  NaN,0.0, NaN, NaN, NaN, NaN, NaN,361.182,15.80,1018.71,72.00,NaN,344.0,NaN,5.3,NaN,143.1,NaN,1.6,NaN,NaN, NaN,NaN,240.0,NaN,NaN,NaN,2,10.7,000639,   NaN,241.6,     NaN,      NaN,NaN,5.2,NaN,15.830, NaN,NaN,NaN, NaN, NaN

20040108,001111,191293,31.139833,-120.968667,NaN,15.829,33.070,41.571,  NaN,0.0, NaN, NaN, NaN, NaN, NaN,361.266,15.80,1018.73,71.90,NaN,346.0,NaN,5.4,NaN,139.9,NaN,1.5,NaN,NaN, NaN,NaN,240.0,NaN,NaN,NaN,2,10.7,000669,   NaN,241.7,     NaN,      NaN,NaN,5.3,NaN,15.832, NaN,NaN,NaN, NaN, NaN

20040108,001141,191323,31.139000,-120.970167,NaN,15.824,33.070,41.567,  NaN,0.0, NaN, NaN, NaN, NaN, NaN,361.145,15.80,1018.79,71.30,NaN,345.0,NaN,5.1,NaN,129.9,NaN,1.3,NaN,NaN, NaN,NaN,241.0,NaN,NaN,NaN,2,10.7,000699,   NaN,242.4,     NaN,      NaN,NaN,5.4,NaN,15.828, NaN,NaN,NaN, NaN, NaN

20040108,001211,191353,31.138333,-120.971667,NaN,15.807,33.071,41.552,  NaN,0.0, NaN, NaN, NaN, NaN, NaN,360.725,15.80,1018.84,70.80,NaN,346.0,NaN,5.0,NaN,123.1,NaN,0.9,NaN,NaN, NaN,NaN,240.0,NaN,NaN,NaN,2,10.7,000729,   NaN,241.0,     NaN,      NaN,NaN,5.3,NaN,15.811, NaN,NaN,NaN, NaN, NaN

20040108,001241,191383,31.137667,-120.973167,NaN,15.797,33.071,41.542,  NaN,0.0, NaN, NaN, NaN, NaN, NaN,360.534,15.80,1018.77,70.40,NaN,345.0,NaN,5.3,NaN,135.3,NaN,1.5,NaN,NaN, NaN,NaN,239.0,NaN,NaN,NaN,2,10.6,000759,   NaN,241.3,     NaN,      NaN,NaN,5.3,NaN,15.801, NaN,NaN,NaN, NaN, NaN

20040108,001311,191413,31.136833,-120.974667,NaN,15.786,33.071,41.532,  NaN,0.0, NaN, NaN, NaN, NaN, NaN,360.299,15.80,1018.68,69.90,NaN,346.0,NaN,5.4,NaN,142.9,NaN,1.6,NaN,NaN, NaN,NaN,240.0,NaN,NaN,NaN,2,10.7,000789,   NaN,241.4,     NaN,      NaN,NaN,5.3,NaN,15.790, NaN,NaN,NaN, NaN, NaN

20040108,001341,191443,31.136167,-120.976167,NaN,15.777,33.071,41.523,  NaN,0.0, NaN, NaN, NaN, NaN, NaN,360.083,15.80,1018.70,70.10,NaN,344.0,NaN,5.3,NaN,142.0,NaN,1.7,NaN,NaN, NaN,NaN,239.0,NaN,NaN,NaN,2,10.7,000819,   NaN,241.0,     NaN,      NaN,NaN,5.4,NaN,15.781, NaN,NaN,NaN, NaN, NaN

20040108,001411,191473,31.135500,-120.977667,NaN,15.762,33.072,41.510,  NaN,0.0, NaN, NaN, NaN, NaN, NaN,359.722,15.80,1018.89,70.40,NaN,347.0,NaN,5.6,NaN,152.0,NaN,1.4,NaN,NaN, NaN,NaN,241.0,NaN,NaN,NaN,2,10.7,000849,   NaN,242.6,     NaN,      NaN,NaN,5.3,NaN,15.766, NaN,NaN,NaN, NaN, NaN

20040108,001441,191503,31.134667,-120.979167,NaN,15.728,33.073,41.480,  NaN,0.0, NaN, NaN, NaN, NaN, NaN,358.863,15.80,1018.68,70.50,NaN,347.0,NaN,5.5,NaN,143.1,NaN,1.5,NaN,NaN, NaN,NaN,239.0,NaN,NaN,NaN,2,10.7,000879,   NaN,241.0,     NaN,      NaN,NaN,5.3,NaN,15.731, NaN,NaN,NaN, NaN, NaN

20040108,001511,191533,31.134000,-120.980667,NaN,15.742,33.067,41.486,  NaN,0.0, NaN, NaN, NaN, NaN, NaN,359.591,15.80,1018.69,69.70,NaN,343.0,NaN,5.6,NaN,138.3,NaN,1.6,NaN,NaN, NaN,NaN,239.0,NaN,NaN,NaN,2,10.7,000909,   NaN,240.4,     NaN,      NaN,NaN,5.4,NaN,15.745, NaN,NaN,NaN, NaN, NaN

20040108,001541,191563,31.133167,-120.982167,NaN,15.761,33.067,41.504,  NaN,0.0, NaN, NaN, NaN, NaN, NaN,360.068,15.80,1018.67,69.70,NaN,341.0,NaN,5.2,NaN,135.8,NaN,1.9,NaN,NaN, NaN,NaN,240.0,NaN,NaN,NaN,2,10.7,000939,   NaN,242.0,     NaN,      NaN,NaN,5.4,NaN,15.765, NaN,NaN,NaN, NaN, NaN

20040108,001611,191593,31.132500,-120.983667,NaN,15.767,33.068,41.511,  NaN,0.0, NaN, NaN, NaN, NaN, NaN,360.115,15.80,1018.63,69.90,NaN,338.0,NaN,5.4,NaN,142.3,NaN,1.9,NaN,NaN, NaN,NaN,241.0,NaN,NaN,NaN,2,10.7,000969,   NaN,242.1,     NaN,      NaN,NaN,5.3,NaN,15.771, NaN,NaN,NaN, NaN, NaN

20040108,001641,191623,31.131833,-120.985167,NaN,15.769,33.068,41.513,  NaN,0.0, NaN, NaN, NaN, NaN, NaN,360.175,15.80,1018.56,70.60,NaN,336.0,NaN,5.3,NaN,131.4,NaN,2.1,NaN,NaN, NaN,NaN,239.0,NaN,NaN,NaN,2,10.7,000999,   NaN,240.8,     NaN,      NaN,NaN,5.3,NaN,15.773, NaN,NaN,NaN, NaN, NaN

20040108,001711,191653,31.131000,-120.986667,NaN,15.763,33.067,41.507,  NaN,0.0, NaN, NaN, NaN, NaN, NaN,360.038,15.80,1018.58,70.00,NaN,333.0,NaN,5.3,NaN,132.9,NaN,2.4,NaN,NaN, NaN,NaN,240.0,NaN,NaN,NaN,2,10.8,001029,   NaN,241.5,     NaN,      NaN,NaN,5.3,NaN,15.767, NaN,NaN,NaN, NaN, NaN

20040108,001741,191683,31.130333,-120.988167,NaN,15.762,33.068,41.506,  NaN,0.0, NaN, NaN, NaN, NaN, NaN,359.998,15.80,1018.55,69.70,NaN,339.0,NaN,4.8,NaN,124.3,NaN,2.0,NaN,NaN, NaN,NaN,240.0,NaN,NaN,NaN,2,10.7,001059,   NaN,240.9,     NaN,      NaN,NaN,5.4,NaN,15.766, NaN,NaN,NaN, NaN, NaN

20040108,001811,191713,31.129667,-120.989667,NaN,15.752,33.067,41.496,  NaN,0.0, NaN, NaN, NaN, NaN, NaN,359.850,15.80,1018.66,69.90,NaN,343.0,NaN,5.1,NaN,118.9,NaN,1.7,NaN,NaN, NaN,NaN,239.0,NaN,NaN,NaN,2,10.8,001089,   NaN,240.7,     NaN,      NaN,NaN,5.3,NaN,15.756, NaN,NaN,NaN, NaN, NaN

20040108,001841,191743,31.128833,-120.991167,NaN,15.744,33.068,41.490,  NaN,0.0, NaN, NaN, NaN, NaN, NaN,359.581,15.70,1018.62,70.10,NaN,340.0,NaN,5.2,NaN,134.8,NaN,1.9,NaN,NaN, NaN,NaN,240.0,NaN,NaN,NaN,2,10.8,001119,   NaN,242.6,     NaN,      NaN,NaN,5.3,NaN,15.748, NaN,NaN,NaN, NaN, NaN

20040108,001911,191773,31.128167,-120.992667,NaN,15.736,33.068,41.482,  NaN,0.0, NaN, NaN, NaN, NaN, NaN,359.426,15.70,1018.61,70.00,NaN,341.0,NaN,5.1,NaN,134.5,NaN,1.5,NaN,NaN, NaN,NaN,241.0,NaN,NaN,NaN,2,10.8,001149,   NaN,242.1,     NaN,      NaN,NaN,5.4,NaN,15.740, NaN,NaN,NaN, NaN, NaN

20040108,001941,191803,31.127333,-120.994333,NaN,15.748,33.065,41.490,  NaN,0.0, NaN, NaN, NaN, NaN, NaN,359.863,15.70,1018.62,69.90,NaN,341.0,NaN,5.3,NaN,134.4,NaN,1.6,NaN,NaN, NaN,NaN,239.0,NaN,NaN,NaN,2,10.8,001179,   NaN,240.2,     NaN,      NaN,NaN,5.3,NaN,15.751, NaN,NaN,NaN, NaN, NaN

20040108,002011,191833,31.126667,-120.995833,NaN,15.757,33.066,41.499,  NaN,0.0, NaN, NaN, NaN, NaN, NaN,360.017,15.80,1018.61,69.70,NaN,341.0,NaN,5.3,NaN,134.3,NaN,2.0,NaN,NaN, NaN,NaN,240.0,NaN,NaN,NaN,2,10.8,001209,   NaN,242.1,     NaN,      NaN,NaN,5.2,NaN,15.761, NaN,NaN,NaN, NaN, NaN

20040108,002041,191863,31.126000,-120.997333,NaN,15.750,33.068,41.495,  NaN,0.0, NaN, NaN, NaN, NaN, NaN,359.743,15.80,1018.65,70.00,NaN,340.0,NaN,5.6,NaN,135.0,NaN,1.8,NaN,NaN, NaN,NaN,240.0,NaN,NaN,NaN,2,10.8,001239,   NaN,241.0,     NaN,      NaN,NaN,5.3,NaN,15.754, NaN,NaN,NaN, NaN, NaN

20040108,002111,191893,31.125167,-120.998833,NaN,15.719,33.069,41.467,  NaN,0.0, NaN, NaN, NaN, NaN, NaN,359.029,15.80,1018.52,69.50,NaN,337.0,NaN,5.3,NaN,127.9,NaN,2.2,NaN,NaN, NaN,NaN,238.0,NaN,NaN,NaN,2,10.7,001269,   NaN,240.2,     NaN,      NaN,NaN,5.4,NaN,15.723, NaN,NaN,NaN, NaN, NaN

20040108,002141,191923,31.124333,-121.000167,NaN,15.719,33.067,41.465,  NaN,0.0, NaN, NaN, NaN, NaN, NaN,359.147,15.80,1018.49,69.70,NaN,340.0,NaN,5.0,NaN,132.5,NaN,2.2,NaN,NaN, NaN,NaN,239.0,NaN,NaN,NaN,2,10.7,001299,   NaN,242.1,     NaN,      NaN,NaN,5.3,NaN,15.723, NaN,NaN,NaN, NaN, NaN

20040108,002211,191953,31.123667,-121.001667,NaN,15.714,33.057,41.448,  NaN,0.0, NaN, NaN, NaN, NaN, NaN,359.782,15.80,1018.67,69.90,NaN,336.0,NaN,5.2,NaN,136.8,NaN,2.1,NaN,NaN, NaN,NaN,239.0,NaN,NaN,NaN,2,10.7,001329,   NaN,240.6,     NaN,      NaN,NaN,5.4,NaN,15.717, NaN,NaN,NaN, NaN, NaN

20040108,002241,191983,31.123000,-121.003167,NaN,15.684,33.041,41.402,  NaN,0.0, NaN, NaN, NaN, NaN, NaN,360.302,15.80,1018.54,70.40,NaN,337.0,NaN,5.2,NaN,127.1,NaN,2.1,NaN,NaN, NaN,NaN,238.0,NaN,NaN,NaN,2,10.8,001359,   NaN,240.7,     NaN,      NaN,NaN,5.2,NaN,15.687, NaN,NaN,NaN, NaN, NaN

20040108,002311,192013,31.122167,-121.004667,NaN,15.632,33.015,41.325,  NaN,0.0, NaN, NaN, NaN, NaN, NaN,361.111,15.80,1018.54,70.80,NaN,334.0,NaN,4.9,NaN,128.4,NaN,2.2,NaN,NaN, NaN,NaN,240.0,NaN,NaN,NaN,2,10.8,001389,   NaN,242.0,     NaN,      NaN,NaN,5.3,NaN,15.636, NaN,NaN,NaN, NaN, NaN

20040108,002341,192043,31.121333,-121.006333,NaN,15.588,32.990,41.255,  NaN,0.0, NaN, NaN, NaN, NaN, NaN,362.011,15.80,1018.59,70.50,NaN,335.0,NaN,5.0,NaN,127.3,NaN,2.5,NaN,NaN, NaN,NaN,240.0,NaN,NaN,NaN,2,10.8,001419,   NaN,241.2,     NaN,      NaN,NaN,5.3,NaN,15.591, NaN,NaN,NaN, NaN, NaN

20040108,002411,192073,31.120667,-121.007833,NaN,15.552,32.971,41.201,  NaN,0.0, NaN, NaN, NaN, NaN, NaN,362.650,15.80,1018.57,71.00,NaN,335.0,NaN,5.4,NaN,130.9,NaN,2.6,NaN,NaN, NaN,NaN,238.0,NaN,NaN,NaN,2,10.9,001449,   NaN,241.2,     NaN,      NaN,NaN,5.3,NaN,15.556, NaN,NaN,NaN, NaN, NaN

20040108,002441,192103,31.119833,-121.009333,NaN,15.525,32.964,41.168,  NaN,0.0, NaN, NaN, NaN, NaN, NaN,362.550,15.70,1018.60,71.00,NaN,335.0,NaN,5.4,NaN,133.9,NaN,2.2,NaN,NaN, NaN,NaN,239.0,NaN,NaN,NaN,2,10.9,001479,   NaN,240.7,     NaN,      NaN,NaN,5.3,NaN,15.529, NaN,NaN,NaN, NaN, NaN

20040108,002511,192133,31.119167,-121.010833,NaN,15.503,32.929,41.107,  NaN,0.0, NaN, NaN, NaN, NaN, NaN,364.682,15.80,1018.57,71.00,NaN,335.0,NaN,5.5,NaN,134.7,NaN,2.4,NaN,NaN, NaN,NaN,240.0,NaN,NaN,NaN,2,10.9,001509,   NaN,242.0,     NaN,      NaN,NaN,5.2,NaN,15.506, NaN,NaN,NaN, NaN, NaN

20040108,002541,192163,31.118333,-121.012333,NaN,15.479,32.894,41.047,  NaN,0.0, NaN, NaN, NaN, NaN, NaN,366.727,15.70,1018.68,70.60,NaN,337.0,NaN,5.6,NaN,139.1,NaN,2.5,NaN,NaN, NaN,NaN,239.0,NaN,NaN,NaN,2,10.9,001539,   NaN,241.1,     NaN,      NaN,NaN,5.3,NaN,15.483, NaN,NaN,NaN, NaN, NaN

20040108,002611,192193,31.117500,-121.013833,NaN,15.463,32.879,41.014,  NaN,0.0, NaN, NaN, NaN, NaN, NaN,367.503,15.80,1018.59,71.30,NaN,335.0,NaN,5.4,NaN,129.9,NaN,2.3,NaN,NaN, NaN,NaN,238.0,NaN,NaN,NaN,2,11.0,001569,   NaN,240.8,     NaN,      NaN,NaN,5.3,NaN,15.467, NaN,NaN,NaN, NaN, NaN

20040108,002641,192223,31.116833,-121.015333,NaN,15.467,32.855,40.991,  NaN,0.0, NaN, NaN, NaN, NaN, NaN,369.349,15.80,1018.56,71.40,NaN,336.0,NaN,5.4,NaN,127.9,NaN,2.3,NaN,NaN, NaN,NaN,238.0,NaN,NaN,NaN,2,11.0,001599,   NaN,241.3,     NaN,      NaN,NaN,5.3,NaN,15.471, NaN,NaN,NaN, NaN, NaN

20040108,002711,192253,31.116000,-121.016833,NaN,15.470,32.839,40.976,  NaN,0.0, NaN, NaN, NaN, NaN, NaN,370.600,15.80,1018.52,71.70,NaN,337.0,NaN,5.5,NaN,133.4,NaN,2.3,NaN,NaN, NaN,NaN,237.0,NaN,NaN,NaN,2,11.1,001629,   NaN,240.3,     NaN,      NaN,NaN,5.3,NaN,15.474, NaN,NaN,NaN, NaN, NaN

20040108,002741,192283,31.115167,-121.018333,NaN,15.518,32.826,41.006,  NaN,0.0, NaN, NaN, NaN, NaN, NaN,372.583,15.70,1018.59,71.30,NaN,337.0,NaN,5.5,NaN,138.0,NaN,2.5,NaN,NaN, NaN,NaN,238.0,NaN,NaN,NaN,2,11.0,001659,   NaN,242.1,     NaN,      NaN,NaN,5.3,NaN,15.522, NaN,NaN,NaN, NaN, NaN

20040108,002811,192313,31.114333,-121.019833,NaN,15.544,32.823,41.027,  NaN,0.0, NaN, NaN, NaN, NaN, NaN,373.304,15.70,1018.64,71.30,NaN,338.0,NaN,5.2,NaN,127.6,NaN,2.0,NaN,NaN, NaN,NaN,239.0,NaN,NaN,NaN,2,11.0,001689,   NaN,241.1,     NaN,      NaN,NaN,5.4,NaN,15.548, NaN,NaN,NaN, NaN, NaN

20040108,002841,192343,31.113667,-121.021333,NaN,15.546,32.822,41.028,  NaN,0.0, NaN, NaN, NaN, NaN, NaN,373.409,15.70,1018.53,72.40,NaN,338.0,NaN,4.9,NaN,122.3,NaN,2.4,NaN,NaN, NaN,NaN,240.0,NaN,NaN,NaN,2,11.0,001719,   NaN,241.7,     NaN,      NaN,NaN,5.3,NaN,15.549, NaN,NaN,NaN, NaN, NaN

20040108,002911,192373,31.112833,-121.023000,NaN,15.545,32.821,41.025,  NaN,0.0, NaN, NaN, NaN, NaN, NaN,373.528,15.70,1018.69,72.40,NaN,338.0,NaN,5.2,NaN,124.2,NaN,2.3,NaN,NaN, NaN,NaN,239.0,NaN,NaN,NaN,2,11.0,001749,   NaN,241.0,     NaN,      NaN,NaN,5.3,NaN,15.549, NaN,NaN,NaN, NaN, NaN

20040108,002941,192403,31.112000,-121.024500,NaN,15.551,32.819,41.029,  NaN,0.0, NaN, NaN, NaN, NaN, NaN,373.778,15.70,1018.61,73.20,NaN,337.0,NaN,5.2,NaN,120.2,NaN,2.2,NaN,NaN, NaN,NaN,238.0,NaN,NaN,NaN,2,11.1,001779,   NaN,240.3,     NaN,      NaN,NaN,5.3,NaN,15.555, NaN,NaN,NaN, NaN, NaN

20040108,003011,192433,31.111333,-121.026000,NaN,15.540,32.819,41.018,  NaN,0.0, NaN, NaN, NaN, NaN, NaN,373.548,15.70,1018.63,72.70,NaN,337.0,NaN,5.3,NaN,128.6,NaN,2.3,NaN,NaN, NaN,NaN,238.0,NaN,NaN,NaN,2,11.1,001809,   NaN,240.6,     NaN,      NaN,NaN,5.4,NaN,15.543, NaN,NaN,NaN, NaN, NaN

20040108,003041,192463,31.110500,-121.027500,NaN,15.547,32.817,41.023,  NaN,0.0, NaN, NaN, NaN, NaN, NaN,373.796,15.50,1018.53,73.30,NaN,334.0,NaN,5.7,NaN,137.6,NaN,2.5,NaN,NaN, NaN,NaN,239.0,NaN,NaN,NaN,2,11.1,001839,   NaN,242.8,     NaN,      NaN,NaN,5.3,NaN,15.551, NaN,NaN,NaN, NaN, NaN

20040108,003111,192493,31.109667,-121.029167,NaN,15.551,32.818,41.027,  NaN,0.0, NaN, NaN, NaN, NaN, NaN,373.871,15.50,1018.62,73.60,NaN,337.0,NaN,5.2,NaN,130.1,NaN,2.0,NaN,NaN, NaN,NaN,239.0,NaN,NaN,NaN,2,11.0,001869,   NaN,241.9,     NaN,      NaN,NaN,5.3,NaN,15.555, NaN,NaN,NaN, NaN, NaN

20040108,003141,192523,31.108833,-121.030667,NaN,15.544,32.818,41.021,  NaN,0.0, NaN, NaN, NaN, NaN, NaN,373.715,15.50,1018.63,73.60,NaN,335.0,NaN,5.3,NaN,130.1,NaN,2.5,NaN,NaN, NaN,NaN,238.0,NaN,NaN,NaN,2,11.1,001899,   NaN,239.9,     NaN,      NaN,NaN,5.3,NaN,15.548, NaN,NaN,NaN, NaN, NaN

20040108,003211,192553,31.108167,-121.032167,NaN,15.534,32.819,41.013,  NaN,0.0, NaN, NaN, NaN, NaN, NaN,373.436,15.40,1018.70,73.80,NaN,337.0,NaN,5.3,NaN,134.3,NaN,2.4,NaN,NaN, NaN,NaN,239.0,NaN,NaN,NaN,2,11.1,001929,   NaN,241.5,     NaN,      NaN,NaN,5.3,NaN,15.537, NaN,NaN,NaN, NaN, NaN

20040108,003241,192583,31.107333,-121.033667,NaN,15.527,32.815,41.002,  NaN,0.0, NaN, NaN, NaN, NaN, NaN,373.513,15.40,1018.63,73.80,NaN,333.0,NaN,5.5,NaN,136.6,NaN,2.6,NaN,NaN, NaN,NaN,238.0,NaN,NaN,NaN,2,11.1,001959,   NaN,240.7,     NaN,      NaN,NaN,5.4,NaN,15.530, NaN,NaN,NaN, NaN, NaN

20040108,003311,192613,31.106500,-121.035167,NaN,15.564,32.814,41.036,  NaN,0.0, NaN, NaN, NaN, NaN, NaN,374.409,15.40,1018.67,74.20,NaN,336.0,NaN,5.4,NaN,135.6,NaN,2.5,NaN,NaN, NaN,NaN,238.0,NaN,NaN,NaN,2,11.1,001989,   NaN,240.4,     NaN,      NaN,NaN,5.4,NaN,15.568, NaN,NaN,NaN, NaN, NaN

20040108,003341,192643,31.105667,-121.036667,NaN,15.602,32.813,41.070,  NaN,0.0, NaN, NaN, NaN, NaN, NaN,375.244,15.40,1018.71,74.00,NaN,335.0,NaN,5.1,NaN,129.3,NaN,2.3,NaN,NaN, NaN,NaN,239.0,NaN,NaN,NaN,2,11.1,002019,   NaN,241.3,     NaN,      NaN,NaN,5.3,NaN,15.605, NaN,NaN,NaN, NaN, NaN

20040108,003411,192673,31.105000,-121.038333,NaN,15.624,32.818,41.096,  NaN,0.0, NaN, NaN, NaN, NaN, NaN,375.382,15.40,1018.61,74.50,NaN,336.0,NaN,5.3,NaN,124.3,NaN,2.4,NaN,NaN, NaN,NaN,240.0,NaN,NaN,NaN,2,11.1,002049,   NaN,241.3,     NaN,      NaN,NaN,5.3,NaN,15.627, NaN,NaN,NaN, NaN, NaN

20040108,003441,192703,31.104167,-121.039833,NaN,15.614,32.821,41.091,  NaN,0.0, NaN, NaN, NaN, NaN, NaN,374.939,15.40,1018.63,74.50,NaN,337.0,NaN,5.2,NaN,128.9,NaN,2.0,NaN,NaN, NaN,NaN,240.0,NaN,NaN,NaN,2,11.1,002079,   NaN,240.8,     NaN,      NaN,NaN,5.4,NaN,15.618, NaN,NaN,NaN, NaN, NaN

20040108,003511,192733,31.103333,-121.041333,NaN,15.603,32.822,41.081,  NaN,0.0, NaN, NaN, NaN, NaN, NaN,374.687,15.40,1018.68,74.00,NaN,335.0,NaN,5.4,NaN,138.7,NaN,2.3,NaN,NaN, NaN,NaN,239.0,NaN,NaN,NaN,2,11.1,002109,   NaN,241.4,     NaN,      NaN,NaN,5.3,NaN,15.607, NaN,NaN,NaN, NaN, NaN

20040108,003541,192763,31.102500,-121.043000,NaN,15.595,32.823,41.074,  NaN,0.0, NaN, NaN, NaN, NaN, NaN,374.425,15.40,1018.67,74.10,NaN,332.0,NaN,5.4,NaN,135.0,NaN,2.5,NaN,NaN, NaN,NaN,240.0,NaN,NaN,NaN,2,11.1,002139,   NaN,242.5,     NaN,      NaN,NaN,5.3,NaN,15.598, NaN,NaN,NaN, NaN, NaN

20040108,003611,192793,31.101833,-121.044500,NaN,15.594,32.822,41.072,  NaN,0.0, NaN, NaN, NaN, NaN, NaN,374.477,15.40,1018.67,73.40,NaN,332.0,NaN,5.3,NaN,133.1,NaN,2.5,NaN,NaN, NaN,NaN,241.0,NaN,NaN,NaN,2,11.1,002169,   NaN,243.0,     NaN,      NaN,NaN,5.4,NaN,15.597, NaN,NaN,NaN, NaN, NaN

20040108,003641,192823,31.101000,-121.046000,NaN,15.569,32.826,41.054,  NaN,0.0, NaN, NaN, NaN, NaN, NaN,373.635,15.40,1018.69,73.60,NaN,335.0,NaN,5.5,NaN,131.2,NaN,2.4,NaN,NaN, NaN,NaN,240.0,NaN,NaN,NaN,2,11.1,002199,   NaN,243.3,     NaN,      NaN,NaN,5.4,NaN,15.573, NaN,NaN,NaN, NaN, NaN

20040108,003711,192853,31.100333,-121.047667,NaN,15.560,32.822,41.040,  NaN,0.0, NaN, NaN, NaN, NaN, NaN,373.743,15.40,1018.67,73.40,NaN,334.0,NaN,5.5,NaN,134.6,NaN,2.7,NaN,NaN, NaN,NaN,241.0,NaN,NaN,NaN,2,11.1,002229,   NaN,242.8,     NaN,      NaN,NaN,5.3,NaN,15.563, NaN,NaN,NaN, NaN, NaN

20040108,003741,192883,31.099500,-121.049167,NaN,15.572,32.822,41.052,  NaN,0.0, NaN, NaN, NaN, NaN, NaN,374.012,15.40,1018.69,74.00,NaN,333.0,NaN,5.7,NaN,135.5,NaN,2.4,NaN,NaN, NaN,NaN,241.0,NaN,NaN,NaN,2,11.2,002259,   NaN,242.7,     NaN,      NaN,NaN,5.4,NaN,15.576, NaN,NaN,NaN, NaN, NaN

20040108,003811,192913,31.098833,-121.050833,NaN,15.580,32.822,41.060,  NaN,0.0, NaN, NaN, NaN, NaN, NaN,374.162,15.40,1018.63,74.00,NaN,333.0,NaN,5.3,NaN,133.2,NaN,2.6,NaN,NaN, NaN,NaN,242.0,NaN,NaN,NaN,2,11.1,002289,   NaN,243.3,     NaN,      NaN,NaN,5.2,NaN,15.584, NaN,NaN,NaN, NaN, NaN

20040108,003841,192943,31.098000,-121.052333,NaN,15.595,32.822,41.073,  NaN,0.0, NaN, NaN, NaN, NaN, NaN,374.514,15.30,1018.65,74.20,NaN,333.0,NaN,5.5,NaN,135.4,NaN,2.6,NaN,NaN, NaN,NaN,241.0,NaN,NaN,NaN,2,11.1,002319,   NaN,243.5,     NaN,      NaN,NaN,5.3,NaN,15.599, NaN,NaN,NaN, NaN, NaN

20040108,003911,192973,31.097333,-121.054000,NaN,15.617,32.822,41.095,  NaN,0.0, NaN, NaN, NaN, NaN, NaN,374.950,15.30,1018.58,74.30,NaN,336.0,NaN,5.3,NaN,128.9,NaN,2.5,NaN,NaN, NaN,NaN,241.0,NaN,NaN,NaN,2,11.1,002349,   NaN,243.5,     NaN,      NaN,NaN,5.3,NaN,15.621, NaN,NaN,NaN, NaN, NaN

20040108,003941,193003,31.096667,-121.055500,NaN,15.631,32.823,41.108,  NaN,0.0, NaN, NaN, NaN, NaN, NaN,375.169,15.30,1018.56,74.10,NaN,333.0,NaN,5.2,NaN,135.1,NaN,2.9,NaN,NaN, NaN,NaN,240.0,NaN,NaN,NaN,2,11.1,002379,   NaN,242.6,     NaN,      NaN,NaN,5.4,NaN,15.634, NaN,NaN,NaN, NaN, NaN

20040108,004011,193033,31.095833,-121.057000,NaN,15.630,32.824,41.109,  NaN,0.0, NaN, NaN, NaN, NaN, NaN,375.101,15.40,1018.66,75.00,NaN,333.0,NaN,5.3,NaN,130.3,NaN,2.8,NaN,NaN, NaN,NaN,241.0,NaN,NaN,NaN,2,11.1,002409,   NaN,243.0,     NaN,      NaN,NaN,5.4,NaN,15.634, NaN,NaN,NaN, NaN, NaN
